Year,Month,Day,Hour,Minute,Value (Times are PST for windgust in km/hr)
2021,02,10,09,08,1.60
2021,02,10,09,09,3.20
2021,02,10,09,10,1.60
2021,02,10,09,11,1.60
2021,02,10,09,12,3.20
2021,02,10,09,13,4.80
2021,02,10,09,14,3.20
2021,02,10,09,15,4.80
2021,02,10,09,16,1.60
2021,02,10,09,17,1.60
2021,02,10,09,18,4.80
2021,02,10,09,19,4.80
2021,02,10,09,20,4.80
2021,02,10,09,21,4.80
2021,02,10,09,22,6.40
2021,02,10,09,23,4.80
2021,02,10,09,24,4.80
2021,02,10,09,25,8.10
2021,02,10,09,26,6.40
2021,02,10,09,27,6.40
2021,02,10,09,28,4.80
2021,02,10,09,29,3.20
2021,02,10,09,30,1.60
2021,02,10,09,32,3.20
2021,02,10,09,33,3.20
2021,02,10,09,34,3.20
2021,02,10,09,35,4.80
2021,02,10,09,36,4.80
2021,02,10,09,37,6.40
2021,02,10,09,38,6.40
2021,02,10,09,39,3.20
2021,02,10,09,40,1.60
2021,02,10,09,41,8.10
2021,02,10,09,42,8.10
2021,02,10,09,43,9.60
2021,02,10,09,44,8.10
2021,02,10,09,45,9.60
2021,02,10,09,46,6.40
2021,02,10,09,47,6.40
2021,02,10,09,48,4.80
2021,02,10,09,49,8.10
2021,02,10,09,50,8.10
2021,02,10,09,51,8.10
2021,02,10,09,52,4.80
2021,02,10,09,53,8.10
2021,02,10,09,54,6.40
2021,02,10,09,55,8.10
2021,02,10,09,56,4.80
2021,02,10,09,57,8.10
2021,02,10,09,58,8.10
2021,02,10,09,59,11.30
2021,02,10,10,00,11.30
2021,02,10,10,01,8.10
2021,02,10,10,02,8.10
2021,02,10,10,03,6.40
2021,02,10,10,04,6.40
2021,02,10,10,05,8.10
2021,02,10,10,06,11.30
2021,02,10,10,07,11.30
2021,02,10,10,08,9.60
2021,02,10,10,09,4.80
2021,02,10,10,10,4.80
2021,02,10,10,11,4.80
2021,02,10,10,12,6.40
2021,02,10,10,13,11.30
2021,02,10,10,14,11.30
2021,02,10,10,15,9.60
2021,02,10,10,16,6.40
2021,02,10,10,17,9.60
2021,02,10,10,18,6.40
2021,02,10,10,19,6.40
2021,02,10,10,20,6.40
2021,02,10,10,21,6.40
2021,02,10,10,22,3.20
2021,02,10,10,23,8.10
2021,02,10,10,24,8.10
2021,02,10,10,25,6.40
2021,02,10,10,26,8.10
2021,02,10,10,27,16.10
2021,02,10,10,28,16.10
2021,02,10,10,29,8.10
2021,02,10,10,30,8.10
2021,02,10,10,31,9.60
2021,02,10,10,32,11.30
2021,02,10,10,33,8.10
2021,02,10,10,34,11.30
2021,02,10,10,35,8.10
2021,02,10,10,36,4.80
2021,02,10,10,37,6.40
2021,02,10,10,38,8.10
2021,02,10,10,39,11.30
2021,02,10,10,40,11.30
2021,02,10,10,41,8.10
2021,02,10,10,42,9.60
2021,02,10,10,43,8.10
2021,02,10,10,44,8.10
2021,02,10,10,45,8.10
2021,02,10,10,46,9.60
2021,02,10,10,47,11.30
2021,02,10,10,48,14.50
2021,02,10,10,49,9.60
2021,02,10,10,50,16.10
2021,02,10,10,51,14.50
2021,02,10,10,52,8.10
2021,02,10,10,53,11.30
2021,02,10,10,54,9.60
2021,02,10,10,55,14.50
2021,02,10,10,56,11.30
2021,02,10,10,57,6.40
2021,02,10,10,58,8.10
2021,02,10,10,59,17.70
2021,02,10,11,00,16.10
2021,02,10,11,01,16.10
2021,02,10,11,02,16.10
2021,02,10,11,03,4.80
2021,02,10,11,04,11.30
2021,02,10,11,05,8.10
2021,02,10,11,06,8.10
2021,02,10,11,07,9.60
2021,02,10,11,08,4.80
2021,02,10,11,09,4.80
2021,02,10,11,10,4.80
2021,02,10,11,11,6.40
2021,02,10,11,12,6.40
2021,02,10,11,13,4.80
2021,02,10,11,14,4.80
2021,02,10,11,15,14.50
2021,02,10,11,16,11.30
2021,02,10,11,17,6.40
2021,02,10,11,18,4.80
2021,02,10,11,19,8.10
2021,02,10,11,20,4.80
2021,02,10,11,21,3.20
2021,02,10,11,22,6.40
2021,02,10,11,23,6.40
2021,02,10,11,24,1.60
2021,02,10,11,25,4.80
2021,02,10,11,26,6.40
2021,02,10,11,27,6.40
2021,02,10,11,28,6.40
2021,02,10,11,29,6.40
2021,02,10,11,30,11.30
2021,02,10,11,31,14.50
2021,02,10,11,32,12.90
2021,02,10,11,33,14.50
2021,02,10,11,34,6.40
2021,02,10,11,35,9.60
2021,02,10,11,36,11.30
2021,02,10,11,37,12.90
2021,02,10,11,38,9.60
2021,02,10,11,39,14.50
2021,02,10,11,40,16.10
2021,02,10,11,41,14.50
2021,02,10,11,42,9.60
2021,02,10,11,43,16.10
2021,02,10,11,44,14.50
2021,02,10,11,45,6.40
2021,02,10,11,46,6.40
2021,02,10,11,47,11.30
2021,02,10,11,48,16.10
2021,02,10,11,49,17.70
2021,02,10,11,50,9.60
2021,02,10,11,51,11.30
2021,02,10,11,52,11.30
2021,02,10,11,53,14.50
2021,02,10,11,54,16.10
2021,02,10,11,55,17.70
2021,02,10,11,56,14.50
2021,02,10,11,57,19.30
2021,02,10,11,58,16.10
2021,02,10,11,59,14.50
2021,02,10,12,00,11.30
2021,02,10,12,01,11.30
2021,02,10,12,02,16.10
2021,02,10,12,03,9.60
2021,02,10,12,04,14.50
2021,02,10,12,05,11.30
2021,02,10,12,06,14.50
2021,02,10,12,07,17.70
2021,02,10,12,08,20.90
2021,02,10,12,09,22.50
2021,02,10,12,10,20.90
2021,02,10,12,11,12.90
2021,02,10,12,12,16.10
2021,02,10,12,13,16.10
2021,02,10,12,14,16.10
2021,02,10,12,15,16.10
2021,02,10,12,16,17.70
2021,02,10,12,17,16.10
2021,02,10,12,18,14.50
2021,02,10,12,19,14.50
2021,02,10,12,20,16.10
2021,02,10,12,21,17.70
2021,02,10,12,22,19.30
2021,02,10,12,23,16.10
2021,02,10,12,24,29.00
2021,02,10,12,25,16.10
2021,02,10,12,26,19.30
2021,02,10,12,27,19.30
2021,02,10,12,28,11.30
2021,02,10,12,29,14.50
2021,02,10,12,30,14.50
2021,02,10,12,31,19.30
2021,02,10,12,32,16.10
2021,02,10,12,33,19.30
2021,02,10,12,34,11.30
2021,02,10,12,35,6.40
2021,02,10,12,36,12.90
2021,02,10,12,37,20.90
2021,02,10,12,38,12.90
2021,02,10,12,39,16.10
2021,02,10,12,40,12.90
2021,02,10,12,41,19.30
2021,02,10,12,42,14.50
2021,02,10,12,43,17.70
2021,02,10,12,44,16.10
2021,02,10,12,45,14.50
2021,02,10,12,46,12.90
2021,02,10,12,47,11.30
2021,02,10,12,48,9.60
2021,02,10,12,49,12.90
2021,02,10,12,50,14.50
2021,02,10,12,51,9.60
2021,02,10,12,52,17.70
2021,02,10,12,53,17.70
2021,02,10,12,54,11.30
2021,02,10,12,55,24.20
2021,02,10,12,56,14.50
2021,02,10,12,57,19.30
2021,02,10,12,58,19.30
2021,02,10,12,59,17.70
2021,02,10,13,00,19.30
2021,02,10,13,01,14.50
2021,02,10,13,02,17.70
2021,02,10,13,03,22.50
2021,02,10,13,04,11.30
2021,02,10,13,05,17.70
2021,02,10,13,06,16.10
2021,02,10,13,07,11.30
2021,02,10,13,08,16.10
2021,02,10,13,09,20.90
2021,02,10,13,10,8.10
2021,02,10,13,11,9.60
2021,02,10,13,12,11.30
2021,02,10,13,13,11.30
2021,02,10,13,14,19.30
2021,02,10,13,15,17.70
2021,02,10,13,16,17.70
2021,02,10,13,17,11.30
2021,02,10,13,18,11.30
2021,02,10,13,19,14.50
2021,02,10,13,20,20.90
2021,02,10,13,21,17.70
2021,02,10,13,22,19.30
2021,02,10,13,23,17.70
2021,02,10,13,24,19.30
2021,02,10,13,25,12.90
2021,02,10,13,26,11.30
2021,02,10,13,27,8.10
2021,02,10,13,28,9.60
2021,02,10,13,29,14.50
2021,02,10,13,30,9.60
2021,02,10,13,31,11.30
2021,02,10,13,32,25.70
2021,02,10,13,33,22.50
2021,02,10,13,34,16.10
2021,02,10,13,35,9.60
2021,02,10,13,36,11.30
2021,02,10,13,37,16.10
2021,02,10,13,38,17.70
2021,02,10,13,39,19.30
2021,02,10,13,40,17.70
2021,02,10,13,41,17.70
2021,02,10,13,42,11.30
2021,02,10,13,43,14.50
2021,02,10,13,44,19.30
2021,02,10,13,45,16.10
2021,02,10,13,46,19.30
2021,02,10,13,47,14.50
2021,02,10,13,48,17.70
2021,02,10,13,49,11.30
2021,02,10,13,50,17.70
2021,02,10,13,51,14.50
2021,02,10,13,52,17.70
2021,02,10,13,53,11.30
2021,02,10,13,54,17.70
2021,02,10,13,55,24.20
2021,02,10,13,56,22.50
2021,02,10,13,57,16.10
2021,02,10,13,58,16.10
2021,02,10,13,59,9.60
2021,02,10,14,00,16.10
2021,02,10,14,01,16.10
2021,02,10,14,02,14.50
2021,02,10,14,03,14.50
2021,02,10,14,04,9.60
2021,02,10,14,05,14.50
2021,02,10,14,06,11.30
2021,02,10,14,07,11.30
2021,02,10,14,08,12.90
2021,02,10,14,09,14.50
2021,02,10,14,10,17.70
2021,02,10,14,11,19.30
2021,02,10,14,12,14.50
2021,02,10,14,13,16.10
2021,02,10,14,14,14.50
2021,02,10,14,15,22.50
2021,02,10,14,16,14.50
2021,02,10,14,17,22.50
2021,02,10,14,18,20.90
2021,02,10,14,19,16.10
2021,02,10,14,20,16.10
2021,02,10,14,21,14.50
2021,02,10,14,22,17.70
2021,02,10,14,23,9.60
2021,02,10,14,24,17.70
2021,02,10,14,25,17.70
2021,02,10,14,26,11.30
2021,02,10,14,27,14.50
2021,02,10,14,28,16.10
2021,02,10,14,29,9.60
2021,02,10,14,30,19.30
2021,02,10,14,31,17.70
2021,02,10,14,32,17.70
2021,02,10,14,33,19.30
2021,02,10,14,34,20.90
2021,02,10,14,35,16.10
2021,02,10,14,36,20.90
2021,02,10,14,37,16.10
2021,02,10,14,38,16.10
2021,02,10,14,39,9.60
2021,02,10,14,40,9.60
2021,02,10,14,41,19.30
2021,02,10,14,42,19.30
2021,02,10,14,43,17.70
2021,02,10,14,44,19.30
2021,02,10,14,45,11.30
2021,02,10,14,46,11.30
2021,02,10,14,47,20.90
2021,02,10,14,48,22.50
2021,02,10,14,49,16.10
2021,02,10,14,50,16.10
2021,02,10,14,51,19.30
2021,02,10,14,52,9.60
2021,02,10,14,53,16.10
2021,02,10,14,54,19.30
2021,02,10,14,55,14.50
2021,02,10,14,56,22.50
2021,02,10,14,57,19.30
2021,02,10,14,58,17.70
2021,02,10,14,59,14.50
2021,02,10,15,00,16.10
2021,02,10,15,01,20.90
2021,02,10,15,02,24.20
2021,02,10,15,03,14.50
2021,02,10,15,04,19.30
2021,02,10,15,05,20.90
2021,02,10,15,06,19.30
2021,02,10,15,07,11.30
2021,02,10,15,08,11.30
2021,02,10,15,09,14.50
2021,02,10,15,10,16.10
2021,02,10,15,11,22.50
2021,02,10,15,12,17.70
2021,02,10,15,13,19.30
2021,02,10,15,14,17.70
2021,02,10,15,15,19.30
2021,02,10,15,16,20.90
2021,02,10,15,17,25.70
2021,02,10,15,18,14.50
2021,02,10,15,19,19.30
2021,02,10,15,20,9.60
2021,02,10,15,21,19.30
2021,02,10,15,22,25.70
2021,02,10,15,23,22.50
2021,02,10,15,24,19.30
2021,02,10,15,25,20.90
2021,02,10,15,26,27.40
2021,02,10,15,27,14.50
2021,02,10,15,28,17.70
2021,02,10,15,29,17.70
2021,02,10,15,30,16.10
2021,02,10,15,31,11.30
2021,02,10,15,32,16.10
2021,02,10,15,33,16.10
2021,02,10,15,34,9.60
2021,02,10,15,35,16.10
2021,02,10,15,36,20.90
2021,02,10,15,37,19.30
2021,02,10,15,38,24.20
2021,02,10,15,39,16.10
2021,02,10,15,40,11.30
2021,02,10,15,41,20.90
2021,02,10,15,42,11.30
2021,02,10,15,43,11.30
2021,02,10,15,44,12.90
2021,02,10,15,45,11.30
2021,02,10,15,46,14.50
2021,02,10,15,47,17.70
2021,02,10,15,48,16.10
2021,02,10,15,49,16.10
2021,02,10,15,50,17.70
2021,02,10,15,51,20.90
2021,02,10,15,52,14.50
2021,02,10,15,53,9.60
2021,02,10,15,54,22.50
2021,02,10,15,55,19.30
2021,02,10,15,56,16.10
2021,02,10,15,57,22.50
2021,02,10,15,58,16.10
2021,02,10,15,59,20.90
2021,02,10,16,00,14.50
2021,02,10,16,01,14.50
2021,02,10,16,02,11.30
2021,02,10,16,03,20.90
2021,02,10,16,04,6.40
2021,02,10,16,05,20.90
2021,02,10,16,06,19.30
2021,02,10,16,07,11.30
2021,02,10,16,08,11.30
2021,02,10,16,09,11.30
2021,02,10,16,10,11.30
2021,02,10,16,11,11.30
2021,02,10,16,12,11.30
2021,02,10,16,13,11.30
2021,02,10,16,14,11.30
2021,02,10,16,15,11.30
2021,02,10,16,16,11.30
